K4IR Weather Reports


time (UTC)temp
C
wind
direction
speed
KPH
gust
KPH
rain 1hr
cm
rain 24hr
cm
rain mn
cm
humidity
%
barometer
mb
20260906122753 22 120 0.0 1.6 0.00 0.00 0.00 99 1011.6
20260906121751 22 111 1.6 3.2 0.00 0.00 0.00 99 1011.7
20260906120748 22 101 0.0 0.0 0.00 0.00 0.00 99 1011.4
20260906115746 22 98 0.0 0.0 0.00 0.00 0.00 99 1011.5
20260906114747 21 114 0.0 0.0 0.00 0.00 0.00 99 1011.4
20260906113743 21 114 0.0 0.0 0.00 0.00 0.00 99 1011.3
20260906112742 21 97 0.0 0.0 0.00 0.00 0.00 99 1011.3
20260906111738 21 98 0.0 0.0 0.00 0.00 0.00 99 1011.3
20260906110734 21 99 0.0 0.0 0.00 0.00 0.00 99 1011.4
20260906105734 21 100 0.0 0.0 0.00 0.00 0.00 99 1011.2
20260906104731 21 100 0.0 0.0 0.00 0.00 0.00 99 1011.1
20260906103727 21 100 0.0 1.6 0.00 0.00 0.00 99 1010.9
20260906102723 21 100 0.0 0.0 0.00 0.00 0.00 99 1011.0
20260906101724 20 99 0.0 0.0 0.00 0.00 0.00 99 1011.0
20260906100720 20 99 0.0 0.0 0.00 0.00 0.00 99 1010.4
20260906095720 20 99 0.0 0.0 0.00 0.00 0.00 99 1010.5
20260906094720 20 99 0.0 0.0 0.00 0.00 0.00 99 1010.1
20260906093718 20 99 0.0 0.0 0.00 0.00 0.00 99 1010.2
20260906092715 20 99 0.0 0.0 0.00 0.00 0.00 99 1010.2
20260906091710 20 99 0.0 0.0 0.00 0.00 0.00 99 1010.4
20260906090708 20 99 0.0 0.0 0.00 0.00 0.00 99 1010.3
20260906085707 20 99 1.6 1.6 0.00 0.00 0.00 99 1010.0
20260906084706 20 98 0.0 0.0 0.00 0.00 0.00 99 1010.3
20260906083701 20 98 0.0 0.0 0.00 0.00 0.00 99 1010.3
20260906082657 20 114 1.6 1.6 0.00 0.00 0.00 99 1010.2
20260906081655 20 114 0.0 0.0 0.00 0.00 0.00 99 1010.4
20260906080652 20 114 0.0 0.0 0.00 0.00 0.00 99 1010.3
20260906075648 20 114 0.0 0.0 0.00 0.00 0.00 99 1010.3
20260906074643 20 114 0.0 0.0 0.00 0.00 0.00 99 1010.3
20260906073643 21 113 1.6 1.6 0.00 0.00 0.00 99 1010.6
20260906072640 21 113 0.0 0.0 0.00 0.00 0.00 99 1010.6
20260906071638 21 113 0.0 0.0 0.00 0.00 0.00 99 1010.5
20260906070634 21 113 0.0 0.0 0.00 0.00 0.00 99 1010.2
20260906065629 21 113 0.0 0.0 0.00 0.00 0.00 99 1010.3
20260906064626 21 113 0.0 1.6 0.00 0.00 0.00 99 1010.4
20260906063621 21 118 0.0 1.6 0.00 0.00 0.00 99 1010.7
20260906062619 21 124 0.0 0.0 0.00 0.00 0.00 99 1010.2
20260906061614 21 120 0.0 0.0 0.00 0.00 0.00 99 1010.6
20260906060610 21 120 0.0 0.0 0.00 0.00 0.00 99 1010.7
20260906055609 21 120 0.0 0.0 0.00 0.00 0.00 99 1010.6
20260906054604 21 120 0.0 1.6 0.05 0.00 0.00 99 1010.6
20260906053601 21 120 0.0 0.0 0.00 0.00 0.00 99 1010.5
20260906052558 22 120 0.0 0.0 0.00 0.00 0.00 99 1010.4
20260906051556 22 120 0.0 0.0 0.00 0.00 0.00 99 1010.5
20260906050552 21 118 0.0 1.6 0.00 0.00 0.00 99 1010.1
20260906045551 21 110 0.0 1.6 0.00 0.00 0.00 99 1010.4
20260906044548 21 110 0.0 0.0 0.00 0.00 0.00 99 1010.4
20260906043545 21 110 0.0 1.6 0.00 0.00 0.00 99 1010.4
20260906042539 21 110 0.0 1.6 0.00 0.00 0.00 99 1010.8
20260906041536 21 110 0.0 0.0 0.00 0.00 0.00 99 1011.1
20260906040532 21 110 0.0 0.0 0.00 0.00 0.00 99 1011.3
20260906035528 21 110 0.0 0.0 0.00 0.71 0.71 99 1011.3
20260906034524 21 109 1.6 1.6 0.00 0.71 0.71 99 1011.1
20260906033520 21 111 0.0 0.0 0.00 0.71 0.71 99 1011.3
20260906032518 21 111 0.0 1.6 0.00 0.71 0.71 99 1011.5
20260906031514 21 106 0.0 0.0 0.00 0.71 0.71 99 1011.8
20260906030509 21 106 1.6 1.6 0.00 0.71 0.71 99 1011.6
20260906025507 21 123 0.0 1.6 0.00 0.71 0.71 99 1011.7
20260906024508 21 124 0.0 0.0 0.00 0.71 0.71 99 1011.4
20260906023504 21 124 1.6 1.6 0.00 0.71 0.71 99 1011.8
20260906022459 21 123 0.0 0.0 0.00 0.71 0.71 99 1011.6
20260906021455 21 124 0.0 1.6 0.00 0.71 0.71 99 1011.4
20260906020450 21 104 1.6 1.6 0.00 0.71 0.71 99 1011.5
20260906015449 21 103 0.0 0.0 0.00 0.71 0.71 99 1011.6
20260906014449 21 104 0.0 0.0 0.00 0.71 0.71 99 1011.7
20260906013446 21 115 1.6 1.6 0.00 0.71 0.71 99 1011.5
20260906012442 21 114 0.0 1.6 0.00 0.71 0.71 99 1011.5
20260906011437 21 139 3.2 3.2 0.00 0.71 0.71 99 1011.8
20260906010434 21 180 3.2 3.2 0.00 0.71 0.71 98 1011.8
20260906005429 21 131 1.6 1.6 0.00 0.71 0.71 98 1012.2
20260906004428 21 132 1.6 3.2 0.00 0.71 0.71 98 1012.0
20260906003425 21 119 1.6 1.6 0.00 0.71 0.71 98 1011.7
20260906002425 21 91 0.0 0.0 0.00 0.71 0.71 98 1011.3
20260906001421 21 133 1.6 3.2 0.00 0.71 0.71 98 1010.8
20260906000418 21 126 0.0 3.2 0.00 0.71 0.71 98 1011.0
20260905235412 21 87 1.6 1.6 0.00 0.71 0.71 98 1011.5
20260905234409 21 119 0.0 0.0 0.00 0.71 0.71 98 1010.7
20260905233404 21 87 0.0 3.2 0.00 0.71 0.71 97 1010.5
20260905232400 21 90 1.6 1.6 0.13 0.71 0.71 97 1010.1
20260905231355 21 79 1.6 3.2 0.84 0.71 0.71 96 1011.0
20260905230356 22 94 1.6 4.8 3.07 0.56 0.56 95 1013.3
20260905225350 27 102 4.8 14.5 0.05 0.00 0.00 79 1012.6
20260905224347 28 91 9.7 16.1 0.00 0.00 0.00 86 1011.9
20260905223345 28 105 1.6 3.2 0.00 0.00 0.00 88 1009.7
20260905222344 28 76 0.0 1.6 0.00 0.00 0.00 87 1009.8
20260905221343 29 85 1.6 3.2 0.00 0.00 0.00 85 1009.6
20260905220341 29 81 1.6 3.2 0.00 0.00 0.00 84 1009.3
20260905215335 30 102 0.0 1.6 0.00 0.00 0.00 83 1009.6
20260905214332 30 107 0.0 1.6 0.00 0.00 0.00 82 1009.2
20260905213329 30 90 0.0 1.6 0.00 0.00 0.00 81 1009.4
20260905212324 31 88 1.6 1.6 0.00 0.00 0.00 80 1009.2
20260905211319 32 81 1.6 3.2 0.00 0.00 0.00 76 1009.2
20260905210315 32 81 1.6 8.0 0.00 0.00 0.00 74 1009.2
20260905205315 32 44 4.8 8.0 0.00 0.00 0.00 72 1009.4
20260905204311 33 19 6.4 9.7 0.00 0.00 0.00 71 1009.0
20260905203305 32 60 1.6 3.2 0.00 0.00 0.00 72 1009.1
20260905202301 32 36 4.8 9.7 0.00 0.00 0.00 72 1009.3
20260905201258 32 64 3.2 8.0 0.00 0.00 0.00 72 1009.3
20260905200255 32 96 0.0 11.3 0.00 0.00 0.00 73 1009.5
20260905195253 32 92 1.6 8.0 0.00 0.00 0.00 74 1009.3
20260905194248 32 68 1.6 4.8 0.00 0.00 0.00 72 1009.6
20260905193243 32 91 1.6 3.2 0.00 0.00 0.00 73 1009.7
20260905192241 32 336 6.4 9.7 0.00 0.00 0.00 73 1009.9
20260905191238 32 84 3.2 9.7 0.00 0.00 0.00 73 1010.1
20260905190236 33 82 1.6 8.0 0.00 0.00 0.00 71 1010.1
20260905185236 34 23 1.6 4.8 0.00 0.00 0.00 68 1010.1
20260905184235 34 71 1.6 3.2 0.00 0.00 0.00 69 1010.6
20260905183231 35 65 1.6 3.2 0.00 0.00 0.00 67 1010.7
20260905182230 34 357 3.2 4.8 0.00 0.00 0.00 68 1010.6
20260905181230 35 52 3.2 9.7 0.00 0.00 0.00 69 1010.5
20260905180226 33 79 0.0 3.2 0.00 0.00 0.00 71 1010.8
20260905175227 34 68 3.2 8.0 0.00 0.00 0.00 66 1011.4
20260905174223 34 97 0.0 4.8 0.00 0.00 0.00 64 1011.3
20260905173221 35 105 4.8 4.8 0.00 0.00 0.00 63 1011.2
20260905172220 33 93 1.6 4.8 0.00 0.00 0.00 65 1011.3
20260905171218 33 90 3.2 9.7 0.00 0.00 0.00 64 1011.4
20260905170215 33 88 3.2 8.0 0.00 0.00 0.00 65 1011.5
20260905165210 33 123 4.8 4.8 0.00 0.00 0.00 68 1011.7
20260905164210 33 79 3.2 11.3 0.00 0.00 0.00 66 1011.7
20260905163208 33 80 1.6 3.2 0.00 0.00 0.00 69 1011.7
20260905162204 32 123 4.8 4.8 0.00 0.00 0.00 69 1012.0
20260905161203 32 88 0.0 3.2 0.00 0.00 0.00 70 1012.2
20260905160201 32 111 3.2 8.0 0.00 0.00 0.00 71 1012.3
20260905155201 32 83 1.6 3.2 0.00 0.00 0.00 74 1012.5
20260905154157 31 96 0.0 3.2 0.00 0.00 0.00 75 1012.8
20260905153154 31 86 1.6 8.0 0.00 0.00 0.00 76 1013.0
20260905152149 31 77 1.6 9.7 0.00 0.00 0.00 77 1013.0
20260905151145 31 110 4.8 9.7 0.00 0.00 0.00 77 1013.0
20260905150145 30 98 1.6 3.2 0.00 0.00 0.00 78 1012.8
20260905145142 30 90 1.6 4.8 0.00 0.00 0.00 78 1013.1
20260905144142 30 102 0.0 3.2 0.00 0.00 0.00 78 1013.1
20260905143137 30 111 1.6 3.2 0.00 0.00 0.00 80 1013.2
20260905142136 30 95 3.2 8.0 0.00 0.00 0.00 80 1013.1
20260905141132 29 107 1.6 4.8 0.00 0.00 0.00 81 1013.4
20260905140133 29 123 0.0 4.8 0.00 0.00 0.00 82 1013.1
20260905135129 28 115 1.6 4.8 0.00 0.00 0.00 83 1013.2
20260905134128 28 133 3.2 4.8 0.00 0.00 0.00 84 1013.3
20260905133124 27 46 1.6 3.2 0.00 0.00 0.00 87 1013.3
20260905132125 27 178 0.0 3.2 0.00 0.00 0.00 89 1013.4
20260905131120 26 109 0.0 1.6 0.00 0.00 0.00 93 1013.5
20260905130120 26 125 0.0 1.6 0.00 0.00 0.00 97 1013.5
20260905125116 25 98 1.6 8.0 0.00 0.00 0.00 98 1013.5
20260905124114 25 88 1.6 1.6 0.00 0.00 0.00 99 1013.7